Location: doobydoo
(53.3403°N, 2.6908°W)
Time: 08:38:39
(UTC+00:00)

ISS - Pass Details

Date: 01 December 2021
Orbit: 413 x 422 km, 51.6° (Epoch: 19 January)

Event Time Altitude Azimuth Distance (km) Brightness Sun altitude
Rises 17:36:06 0° 271° (W) 2,383 1.5 -14.0°
Reaches altitude 10° 17:38:14 10° 268° (W) 1,516 0.3 -14.3°
Maximum altitude 17:41:36 62° 188° (S) 480 -3.4 -14.8°
Enters shadow 17:43:22 25° 114° (ESE) 895 -2.5 -15.0°
